Starlink 3218

operational
NORAD ID: 49725 Int'l Des: 2021-115 Owner: SPXS Country: US Constellation: starlink
LEOCIRCULAR

Starlink 3218について

説明を読み込み中...

リアルタイム位置

3D地球を読み込み中...

次回通過

高度履歴

Altitude vs Time

uPlot chart will show altitude changes over time

軌道要素

1 49725U 21115B 26033.03799352 .00010752 00000-0 69336-3 0 9994
2 49725 53.2193 309.2736 0001546 115.0052 245.1101 15.08798262230155
Epoch: Feb 2, 2026 • Age: 74 hours

現在のステータス

高度 547.9 km
速度 7.59 km/s
衛星直下点 -27.60°S, 41.85°W
打ち上げ日 Dec 2, 2021
運用期間 4.1 years
タイプ internet

技術仕様

分類 Payload
質量 290.00 kg
乾燥質量 270.00 kg
総質量 290.00 kg
長さ 0.20 m
直径 2.80 m
スパン 9.00 m
形状 Box + pan
製造者 SPXS
バスタイプ Starlink
フェーズステータス In Orbit
所有者/国 SPXS/US

大規模コンステレーション

Loading constellations...